Zurück zum Katalog

USA 485

AktivMilitärVLEO
NORAD 62756·PAYLOAD·🇺🇸 United States

Gestartet Jan 21, 2025 von Cape Canaveral Space Force Station

Loading…

Nächste Überflüge (nächste 24 Stunden)

TLE

AktuellSource: Space-Track

Epoche: Sep 14, 2026, 13:08 UTC

1 62756U 25014X   26257.54737820  .00198233  00000-0  11219-2 0  9998
2 62756  42.9998 287.5930 0001414 283.4980  76.5732 15.77731379 94875

Verfolge USA 485 in Echtzeit mit AllMySat

Download on the App Store